Regional Weather Roundup
Issued by NWS

Home | Current Version | Previous Version | Text Only | Print | Product List | Glossary Off
Versions: 1 2 3 4 5 6 7 8 9 10 11 12 13 14 15 16 17 18 19 20 21 22 23 24 25 26 27 28 29 30 31 32 33 34 35 36 37 38 39 40 41 42 43 44 45 46 47 48 49 50

000
ASUS43 KMPX 202201
RWRMN
WEATHER ROUNDUP FOR MINNESOTA
NATIONAL WEATHER SERVICE TWIN CITIES/CHANHASSEN MN
500 PM CDT WED AUG 20 2014


NOTE: "FAIR" INDICATES FEW OR NO CLOUDS BELOW 12,000 FEET WITH NO
SIGNIFICANT WEATHER AND/OR OBSTRUCTIONS TO VISIBILITY. N/A MEANS
CURRENT SKY AND/OR WEATHER CONDITIONS ARE NOT AVAILABLE.

MNZ060>063-068>070-202300-
   Twin Cities Metro

CITY           SKY/WX    TMP DP  RH WIND       PRES   REMARKS
TWIN CITIES    CLOUDY    83  65  54 E9        29.84F
ST PAUL        CLOUDY    81  65  58 E6        29.84F
CRYSTAL        CLOUDY    83  62  49 VRB3      29.83S
BLAINE         PTSUNNY   82  66  57 E8        29.85S
LAKEVILLE      CLOUDY    81  68  65 E8        29.84F
EDEN PRAIRIE   CLOUDY    83  64  52 E3        29.82F
SOUTH ST PAUL  CLOUDY    82  64  54 NE6       29.84F
LAKE ELMO      FAIR      79  64  61 SE3       29.87S
$$
MNZ001>005-007-008-013>017-022>024-027-028-202300-
   Northwest Minnesota

CITY           SKY/WX    TMP DP  RH WIND       PRES   REMARKS
BEMIDJI        MOSUNNY   77  63  60 SE8       29.86S
HALLOCK        PTSUNNY   84  64  51 S13       29.78R
ROSEAU         PTSUNNY   82  64  54 SE10      29.82S
WARROAD        MOSUNNY   81  66  61 E9        29.84S
THIEF RVR FALL PTSUNNY   81  64  57 SE12      29.81S
CROOKSTON      MOSUNNY   82  66  57 S12       29.79S
FOSSTON        MOSUNNY   82  64  54 S8        29.84S
DETROIT LAKES  PTSUNNY   81  64  57 SE10      29.84S
MOORHEAD       PTSUNNY   82  70  65 S10       29.79S
PARK RAPIDS    PTSUNNY   80  61  52 SE13      29.85F
MAHNOMEN       FAIR      78  66  66 SE8       29.82F
$$
MNZ006-009>011-018-025>026-202300-
   North Central Minnesota

CITY           SKY/WX    TMP DP  RH WIND       PRES   REMARKS
BAUDETTE       SUNNY     77  62  59 E10       29.86S
FLAG ISLAND    MOSUNNY   75  64  69 S7        29.84F
INTL FALLS     MOSUNNY   75  59  57 SE5       29.88F
WASKISH        PTSUNNY   75  63  64 CALM      29.87R
BIG FORK       MOSUNNY   75  61  60 S8        29.90S
LONGVILLE      PTSUNNY   77  64  65 SE5       29.88S
GRAND RAPIDS   CLOUDY    72  61  68 SE3       29.91R
CRANE LAKE     MOSUNNY   70  63  78 CALM      29.91S
ORR            MOSUNNY   77  55  47 SE3       29.87F
COOK           SUNNY     75  59  57 E3        29.90S
WALKER         MOCLDY    75  64  69 E6        29.86F
$$
MNZ012-019>021-037-202300-
   Northeast Minnesota

CITY           SKY/WX    TMP DP  RH WIND       PRES   REMARKS
DULUTH         PTSUNNY   70  58  65 SE8       29.92R
ELY            MOSUNNY   72  59  64 NE3       29.92R
HIBBING        CLOUDY    73  60  63 S6        29.91R
EVELETH        CLOUDY    72  59  64 S6        29.92S
DULUTH HARBOR  CLOUDY    68  63  83 NE5       29.91S
TWO HARBORS    MOSUNNY   70  59  68 SE8       29.90S
SILVER BAY     SUNNY     70  61  73 CALM      29.90S
GRAND MARAIS     N/A     63  60  90 CALM      29.93R
G MARAIS ARPRT CLOUDY    61  55  82 S5        29.96R
$$
MNZ029>031-032-039>041-046>048-054>057-064-202300-
   West Central Minnesota

CITY           SKY/WX    TMP DP  RH WIND       PRES   REMARKS
FERGUS FALLS   PTSUNNY   81  63  54 SE10      29.80S
WHEATON        MOSUNNY   79  68  69 SE14      29.79F
MORRIS         MOSUNNY   84  66  54 SE13      29.79S
ALEXANDRIA     PTSUNNY   81  65  58 SE10      29.85S
ELBOW LAKE     FAIR      82  67  60 SE13      29.81S
WADENA         PTSUNNY   79  66  65 SE9       29.84F
GLENWOOD       PTSUNNY   82  66  57 SE10      29.84S
APPLETON       PTSUNNY   82  66  57 SE13      29.78F
BENSON         PTSUNNY   82  66  57 S13       29.80S
ORTONVILLE     PTSUNNY   82  66  57 SE9G16    29.78S
MADISON        CLOUDY    82  70  65 E8        29.78S
WILLMAR        FAIR      81  64  57 SE9       29.83S
$$
MNZ033>034-036-042>043-049>051-058-059-202300-
   Central Minnesota

CITY           SKY/WX    TMP DP  RH WIND       PRES   REMARKS
ST CLOUD       CLOUDY    82  65  56 E8        29.84F
SAUK CENTRE    FAIR     N/A N/A N/A SE10      29.84S
PAYNESVILLE    PTSUNNY   79  63  57 E9        29.84S
AITKIN         PTSUNNY   77  64  65 CALM      29.88S
PINE RIVER     PTSUNNY   75  64  69 SE9       29.91R
BRAINERD       PTSUNNY   75  64  68 E5        29.87F
STAPLES        PTSUNNY   75  63  64 SE6       29.85F
LONG PRAIRIE   FAIR      79  64  61 SE8       29.85S
LITTLE FALLS   PTSUNNY   79  63  57 SE9       29.85F
LITCHFIELD     MOSUNNY   82  66  57 E9        29.83S
BUFFALO        CLOUDY    81  62  51 E5        29.85F
MAPLE LAKE     CLOUDY    80  67  64 E5        29.85F
$$
MNZ037-044-045-052-053-202300-
   East Central Minnesota

CITY           SKY/WX    TMP DP  RH WIND       PRES   REMARKS
PRINCETON      PTSUNNY   81  66  61 E5        29.86S
MORA           PTSUNNY   73  61  64 E3        29.89F
CAMBRIDGE      PTSUNNY   79  64  61 SE3       29.85S
RUSH CITY      MOSUNNY   77  64  63 E3        29.87F
MOOSE LAKE     CLOUDY    72  61  68 SE3       29.89R
HINCKLEY       CLOUDY    75  63  64 E5        29.89F
CLOQUET        CLOUDY    70  59  68 CALM      29.92R
MCGREGOR       CLOUDY    72  63  73 SE8       29.90S
$$
MNZ071>073-080-081-089-090-097-098-202300-
   Southwest Minnesota

CITY           SKY/WX    TMP DP  RH WIND       PRES   REMARKS
MONTEVIDEO     CLOUDY    81  70  69 SE8       29.80S
GRANITE FALLS  PTSUNNY   82  68  62 SE12      29.81S
CANBY          CLOUDY    79  67  67 SE9       29.79R
MARSHALL       PTSUNNY   81  66  61 SE14      29.79S
REDWOOD FALLS  MOSUNNY   84  67  56 SE15      29.80S
OLIVIA         PTSUNNY   81  64  57 SE8       29.81S
PIPESTONE      CLOUDY    79  70  73 S8        29.81S
WINDOM         MOSUNNY   81  66  61 S7        29.83S
WORTHINGTON    PTSUNNY   81  19  10 S8        29.84R
JACKSON        MOSUNNY   81  68  65 S13       29.85R
TRACY          MOSUNNY   82  70  65 S8        29.82R
SLAYTON        PTSUNNY   78  69  74 SE8       29.83S
$$
MNZ065>067-074>077-082>085-091>093-202300-
   South Central Minnesota

CITY           SKY/WX    TMP DP  RH WIND       PRES   REMARKS
MANKATO        PTSUNNY   82  64  54 S9        29.83R
NEW ULM        PTSUNNY   82  68  61 SE10      29.82S
ST JAMES       PTSUNNY   84  66  54 S6        29.83S
FAIRMONT       PTSUNNY   79  66  65 S13       29.84S
GLENCOE        PTSUNNY   85  62  46 SE3       29.82F
FARIBAULT      CLOUDY    84  63  48 S3        29.85S
OWATONNA       PTSUNNY   81  66  61 S6        29.85S
WASECA         PTSUNNY   79  61  53 S6        29.86S
ALBERT LEA     MOSUNNY   81  68  65 S5        29.86S
$$
MNZ078>079-086>088-094>096-202300-
   Southeast Minnesota

CITY           SKY/WX    TMP DP  RH WIND       PRES   REMARKS
ROCHESTER      PTSUNNY   82  66  58 E3        29.88R
RED WING       CLOUDY    81  64  57 CALM      29.84S
STANTON        PTSUNNY   82  64  53 CALM      29.83S
DODGE CENTER   PTSUNNY   81  70  69 SE3       29.87R
WINONA         PTSUNNY   81  64  57 CALM      29.85S
AUSTIN         MOSUNNY   79  66  65 S8        29.87R
PRESTON        PTSUNNY   81  71  71 S3        29.88R
$$
ABBREVIATIONS USED IN REMARKS
   TC - TEMPERATURES IN CELSIUS
  WCI - WIND CHILL INDEX
   HX - HEAT INDEX
  VSB - VISIBILITY
$$



USA.gov is the U.S. government's official web portal to all federal, state and local government web resources and services.